Terminal Aerodrome Forecast
Issued by NWS Charleston, WV

Current Version | Previous Version | Graphics & Text | Print | Product List | Glossary On
Versions: 1 2 3 4 5 6 7 8 9 10 11 12 13 14 15 16 17 18 19 20 21 22 23 24
169
FTUS41 KRLX 141506 AAA
TAFEKN
TAF AMD
KEKN 141506Z 1415/1512 15005KT 2SM -RA OVC015
     FM142000 VRB03KT 2SM -RA OVC008
     FM150200 VRB03KT 2SM -RA OVC003=

USA.gov is the U.S. government's official web portal to all federal, state and local government web resources and services.